Main page
METAR-TAF:

METAR-TAF

Airports :

Maragheh, Iran

latitude: 37-20-55N, longitude: 046-07-35E, elevation: 1340 m

Current weather observation

The report was made 1 hour and 9 minutes ago, at 07:00 UTC
Wind 12 kt from the East
Temperature 29°C
Humidity 33%
Pressure 1015 hPa
Visibility 10 km or more
Few clouds at a height of 3800 ft

METAR: OITM 250700Z 09012KT 9999 FEW038 29/11 Q1015

Time: 12:39 (08:09 UTC)


TAF: missing

Weather observations and forecasts of more than 4000 airports (METAR and TAF reports).

The available stations are represented by yellow and red dots on the map.

Hover mouse over dot to see the name of the station.

Then click to see weather observations and forecasts.

To change the map : click on the green buttons with a black cross to zoom in, on the green button with a dash to zoom out, or on the green arrows for adjacent maps.


METAR-TAF: